Retour au catalogue

FLOCK 4G 28

ActifScienceSSO
NORAD 62634·PAYLOAD·🇺🇸 United States

Lancé Jan 14, 2025 depuis Vandenberg Space Force Base

Loading…

Prochains Passages (prochaines 24 heures)

TLE

FraisSource: CelesTrak SupGP

Époque: Sep 11, 2026, 04:44 UTC

1 62634C 25009AB  26254.19759259  .00013620  00000+0  38779-3 0  2545
2 62634  97.3995 339.1322 0002043  45.6486 259.8658 15.36148384    17

Suivez FLOCK 4G 28 en temps réel avec AllMySat

Download on the App Store